Location: Seattle
(47.6064°N, 122.3308°W)
Time: 03:28:58
(UTC-08:00)

S-56A Canister/Altair - Pass Details

Date: 02 December 2020
Orbit: 633 x 2499 km, 38.9° (Epoch: 23 January)

Event Time Altitude Azimuth Distance (km) Brightness Sun altitude
Rises 17:21:40 0° 217° (SW) 6,089 13.2 -10.2°
Reaches altitude 10° 17:26:26 10° 209° (SSW) 4,942 12.4 -10.9°
Maximum altitude 17:37:41 32° 154° (SSE) 2,954 10.4 -12.7°
Enters shadow 17:45:33 13° 99° (E) 3,596 10.4 -14.0°
Drops below altitude 10° 17:46:15 10° 96° (E) 3,741 - -14.1°
Sets 17:49:17 0° 86° (E) 4,466 - -14.6°
